Home   Weather   Stans   Past weeks

Flag for Switzerland Past Weather in Stans, Nidwalden, Switzerland — Yesterday and Last 2 Weeks

Now
35 °F

Chilly.


Feels Like: 35 °F
Forecast: 28 / 47 °F
Wind: 1 mph from Southwest

Location: Giswil

Current Time: Feb 19, 2017 at 7:58:53 pm

Latest Report: Feb 19, 2017 at 7:00 pm


Visibility: N/A

Pressure: 30.29 "Hg

Humidity: 90%

Dew Point: 32 °F

Location of StansLocation

Past Weather in Stans — Graph

°F

Stans Temperature Yesterday

Maximum temperature yesterday: 44 °F (at 3:00 pm)
Minimum temperature yesterday: 26 °F (at 8:00 am)
Average temperature yesterday: 33 °F

High & Low Weather Summary for the Past Weeks

 TemperatureHumidityPressure
High54 °F (Feb 16, 4:00 pm)100% (Feb 5, 8:00 pm)30.68 "Hg (Feb 5, 8:00 pm)
Low22 °F (Feb 19, 7:00 am)38% (Feb 4, 8:00 pm)29.65 "Hg (Feb 5, 1:00 pm)
Average33 °F94%30.25 "Hg
* Reported Feb 4 6:00 pm — Feb 19 6:00 pm, Stans, Weather by CustomWeather, © 2017

Note: Actual official high and low records may vary slightly from our data, if they occured in-between our weather recording intervals... More about our weather records

Advertising

Stans Weather History for the Previous 24 Hours

Scroll right to see more
 ConditionsComfort  
Time TempWeatherWind HumidityBarometerVisibility
6:00 pm
Sun, Feb 19
42 °FQuite cool.1 mph74%30.25 "HgN/A
5:00 pm47 °FCool.No wind59%30.24 "HgN/A
4:00 pm50 °FCool.2 mph43%30.24 "HgN/A
3:00 pm48 °FCool.2 mph43%30.26 "HgN/A
2:00 pm46 °FCool.1 mph48%30.27 "HgN/A
1:00 pm44 °FQuite cool.2 mph53%30.30 "HgN/A
12:00 pm39 °FChilly.1 mph70%30.35 "HgN/A
11:00 am35 °FChilly.3 mph97%30.37 "HgN/A
10:00 am29 °FChilly.No wind99%30.39 "HgN/A
9:00 am24 °FCold.1 mph99%30.41 "HgN/A
8:00 am22 °FCold.No wind99%30.40 "HgN/A
7:00 am22 °FCold.No wind100%30.39 "HgN/A
6:00 am22 °FCold.No wind99%30.39 "HgN/A
5:00 am23 °FCold.1 mph99%30.40 "HgN/A
4:00 am23 °FCold.1 mph100%30.40 "HgN/A
3:00 am23 °FCold.1 mph99%30.39 "HgN/A
2:00 am24 °FCold.1 mph99%30.39 "HgN/A
1:00 am24 °FCold.1 mph100%30.39 "HgN/A
12:00 am26 °FChilly.1 mph99%30.39 "HgN/A
11:00 pm
Sat, Feb 18
26 °FChilly.No wind99%30.37 "HgN/A
10:00 pm27 °FChilly.No wind99%30.37 "HgN/A
9:00 pm28 °FChilly.1 mph99%30.37 "HgN/A
8:00 pm29 °FChilly.2 mph100%30.37 "HgN/A
7:00 pm32 °FChilly.3 mph99%30.35 "HgN/A
Weather by CustomWeather, © 2017

See weather overviewHow to use our weather pages